| time (UTC) | temp F | wind direction | speed knots | gust knots | rain 1hr in | rain 24hr in | rain mn in | humidity % | barometer mb |
| 20260507003037 | 56 | 282 | 1.7 | 3.5 | 0.00 | 0.00 | 0.00 | ||
| 20260506233045 | 55 | 219 | 0.0 | 1.7 | 0.00 | 0.00 | 0.00 | ||
| 20260506230053 | 55 | 262 | 0.9 | 8.7 | 0.00 | 0.00 | 0.00 | ||
| 20260506223054 | 57 | 242 | 1.7 | 7.8 | 0.00 | 0.00 | 0.00 | ||
| 20260506213043 | 57 | 222 | 0.9 | 7.0 | 0.00 | 0.00 | 0.00 | ||
| 20260506210112 | 58 | 224 | 1.7 | 5.2 | 0.00 | 0.00 | 0.00 | ||
| 20260506203048 | 58 | 251 | 0.9 | 7.0 | 0.00 | 0.00 | 0.00 | ||
| 20260506200101 | 56 | 243 | 0.9 | 5.2 | 0.00 | 0.00 | 0.00 | ||
| 20260506193043 | 57 | 285 | 0.9 | 5.2 | 0.00 | 0.00 | 0.00 | ||
| 20260506183033 | 55 | 215 | 0.9 | 3.5 | 0.00 | 0.00 | 0.00 | ||
| 20260506180104 | 54 | 270 | 0.0 | 2.6 | 0.00 | 0.00 | 0.00 | ||
| 20260506173044 | 54 | 239 | 1.7 | 5.2 | 0.00 | 0.00 | 0.00 | ||
| 20260506170055 | 54 | 249 | 0.9 | 5.2 | 0.00 | 0.00 | 0.00 | ||
| 20260506163036 | 54 | 265 | 0.9 | 4.3 | 0.00 | 0.00 | 0.00 | ||
| 20260506160046 | 54 | 239 | 0.0 | 1.7 | 0.00 | 0.00 | 0.00 | ||
| 20260506150056 | 54 | 262 | 0.0 | 4.3 | 0.00 | 0.00 | 0.00 | ||
| 20260506143036 | 53 | 235 | 0.0 | 0.9 | 0.00 | 0.00 | 0.00 | ||
| 20260506140104 | 53 | 176 | 0.0 | 1.7 | 0.00 | 0.00 | 0.00 | ||
| 20260506133044 | 53 | 280 | 0.0 | 0.9 | 0.00 | 0.00 | 0.00 | ||
| 20260506130053 | 53 | 234 | 0.0 | 0.9 | 0.00 | 0.00 | 0.00 | ||
| 20260506123037 | 53 | 262 | 0.0 | 1.7 | 0.00 | 0.00 | 0.00 | ||
| 20260506120108 | 53 | 211 | 0.0 | 1.7 | 0.00 | 0.00 | 0.00 | ||
| 20260506113048 | 53 | 242 | 0.0 | 4.3 | 0.00 | 0.00 | 0.00 | ||
| 20260506103041 | 53 | 217 | 0.0 | 1.7 | 0.00 | 0.00 | 0.00 | ||
| 20260506100049 | 53 | 239 | 0.0 | 0.9 | 0.00 | 0.00 | 0.00 | ||
| 20260506093051 | 53 | 228 | 0.0 | 1.7 | 0.00 | 0.00 | 0.00 | ||
| 20260506083039 | 54 | 249 | 0.0 | 1.7 | 0.00 | 0.00 | 0.00 | ||
| 20260506050106 | 55 | 251 | 0.9 | 2.6 | 0.00 | 0.00 | 0.00 | ||
| 20260506043048 | 55 | 283 | 0.9 | 2.6 | 0.00 | 0.00 | 0.00 | ||
| 20260506040100 | 55 | 258 | 0.0 | 4.3 | 0.00 | 0.00 | 0.00 | ||
| 20260506033037 | 56 | 231 | 0.9 | 1.7 | 0.00 | 0.00 | 0.00 | ||
| 20260506030107 | 56 | 265 | 0.9 | 3.5 | 0.00 | 0.00 | 0.00 | ||
| 20260506023046 | 57 | 215 | 0.0 | 3.5 | 0.00 | 0.00 | 0.00 | ||
| 20260506020054 | 58 | 231 | 0.9 | 3.5 | 0.00 | 0.00 | 0.00 | ||
| 20260506013035 | 59 | 203 | 1.7 | 4.3 | 0.00 | 0.00 | 0.00 | ||
| 20260506010103 | 60 | 258 | 0.9 | 7.0 | 0.00 | 0.00 | 0.00 |